Retour au catalogue

CZ-6A DEB

ActifPO
NORAD 61107·DEBRIS·🇨🇳 China

Lancé Aug 6, 2024 depuis Taiyuan Satellite Launch Center

Loading…

Prochains Passages (prochaines 24 heures)

TLE

FraisSource: Space-Track

Époque: Sep 14, 2026, 09:02 UTC

1 61107U 24140NZ  26257.37677673  .00000939  00000-0  50586-3 0  9992
2 61107  89.2082 284.9348 0098051 299.4977  59.6455 14.09712554104999

Suivez CZ-6A DEB en temps réel avec AllMySat

Download on the App Store